FLOCK 3S-2 (43821 NORAD) Tracking and Keplerian Element Data

This shows tracking and keplerian element data for the satellite.

Feedback or suggestion? Click here.




ElementValue
Catalog43821
NameFLOCK 3S-2
Epoch Orbit396
Epoch Day1.32548747
Epoch Year2019
RAAN75.2143
Inclination97.7638
Eccentricity0.0014586
Argument of Perigee164.6532
Mean Anonmoly195.5134
Mean Motion14.95298877
Decay Rate1.78E-06
L11 43821U 18099BR 19001.32548747 .00000178 00000-0 21391-4 0 9992
L22 43821 97.7638 75.2143 0014586 164.6532 195.5134 14.95298877 3969

Live tracking and technical data element details for FLOCK 3S-2 (NORAD 43821). FLOCK 3S-2 can be tracked NOW for your location showing map with azimuth and elevation plus other details from your city location.

Track the satellite on the map from your city or location and see movement details for azimuth, elevation, latitude, longitude, range, height, and movement on the map or in text.







IsCatalogInMostPopularTable: catalog: 43821, numindb: 71
Update: records affected: 1



GetName: 43821 FLOCK 3S-2

Hit Count: updated at: Wed, 17 Jul 2019 08:48:36 GMT